DW6157 Weather Reports


Display with metric or nautical units.
time (UTC)temp
F
wind
direction
speed
MPH
gust
MPH
rain 1hr
in
rain 24hr
in
rain mn
in
humidity
%
barometer
mb
20260510114543 50 77 0.0 7.0 0.00 0.12 0.12 74 1010.7
20260510113034 50 36 0.0 4.0 0.00 0.12 0.12 78 1011.0
20260510111530 49 329 0.0 4.0 0.00 0.12 0.12 83 1011.3
20260510110027 47 56 1.0 4.0 0.00 0.12 0.12 84 1011.5
20260510104524 46 293 0.0 0.0 0.00 0.12 0.12 85 1011.6
20260510103023 46 52 0.0 7.0 0.00 0.12 0.12 86 1011.7
20260510101521 46 17 1.0 7.0 0.00 0.12 0.12 88 1011.9
20260510100018 45 18 1.0 7.0 0.00 0.12 0.12 89 1012.1
20260510094517 45 349 1.0 6.0 0.00 0.12 0.12 91 1012.2
20260510093018 43 23 1.0 6.0 0.00 0.12 0.12 92 1012.4
20260510091516 42 45 1.0 6.0 0.01 0.12 0.12 93 1012.6
20260510090011 41 27 1.0 8.0 0.01 0.12 0.12 93 1012.7
20260510084510 41 337 1.0 7.0 0.02 0.12 0.12 93 1012.9
20260510083009 41 343 1.0 7.0 0.03 0.12 0.12 92 1013.0
20260510081505 41 336 1.0 5.0 0.03 0.11 0.11 93 1013.3
20260510080005 42 344 0.0 9.0 0.04 0.11 0.11 93 1013.4
20260510074502 42 323 1.0 10.0 0.04 0.10 0.10 93 1013.4
20260510073116 42 339 0.0 4.0 0.04 0.09 0.09 93 1013.5
20260510071559 42 357 0.0 5.0 0.04 0.08 0.08 92 1013.5
20260510070106 43 333 0.0 4.0 0.05 0.07 0.07 92 1013.5
20260510064635 43 351 0.0 6.0 0.05 0.06 0.06 92 1013.6
20260510063056 43 52 0.0 7.0 0.04 0.05 0.05 91 1013.6
20260510061555 43 5 1.0 7.0 0.03 0.04 0.04 91 1013.6
20260510060055 44 328 0.0 5.0 0.01 0.02 0.02 91 1013.9
20260510054554 44 355 0.0 6.0 0.00 0.01 0.01 91 1013.8
20260510053054 44 348 0.0 1.0 0.00 0.01 0.01 91 1013.8
20260510051556 44 36 0.0 3.0 0.00 0.01 0.01 91 1013.7
20260510050052 44 25 0.0 0.0 0.00 0.01 0.01 92 1013.9
20260510044550 44 32 0.0 3.0 0.01 0.01 0.01 92 1013.8
20260510043050 44 346 0.0 2.0 0.01 0.01 0.01 92 1014.0
20260510041549 44 23 0.0 3.0 0.01 0.01 0.01 92 1014.0
20260510040048 44 347 0.0 2.0 0.01 0.01 0.01 91 1014.3
20260510034606 44 353 0.0 0.0 0.00 0.00 0.00 91 1014.5
20260510033048 44 347 0.0 0.0 0.00 0.00 0.00 91 1014.5
20260510031542 44 26 0.0 2.0 0.00 0.00 0.00 92 1014.7
20260510030040 44 305 0.0 0.0 0.00 0.00 0.00 92 1015.0
20260510024539 44 296 0.0 0.0 0.00 0.00 0.00 92 1015.1
20260510023038 43 296 0.0 0.0 0.00 0.00 0.00 92 1015.2
20260510021536 43 296 0.0 0.0 0.00 0.00 0.00 92 1015.2
20260510020036 43 296 0.0 0.0 0.00 0.00 0.00 91 1015.2
20260510014535 43 296 0.0 0.0 0.00 0.00 0.00 91 1015.4
20260510013034 43 295 0.0 0.0 0.00 0.00 0.00 91 1015.5
20260510011532 42 295 0.0 0.0 0.00 0.00 0.00 91 1015.7
20260510010029 42 295 0.0 0.0 0.00 0.00 0.00 90 1016.0
20260510004529 42 295 0.0 0.0 0.00 0.00 0.00 90 1016.0
20260510003029 42 295 0.0 0.0 0.00 0.00 0.00 89 1016.1
20260510001524 43 295 0.0 0.0 0.00 0.00 0.00 89 1016.3
20260510000023 43 291 0.0 0.0 0.00 0.00 0.00 88 1016.5
20260509234520 43 280 0.0 3.0 0.00 0.00 0.00 87 1016.7
20260509233020 44 222 0.0 0.0 0.00 0.00 0.00 86 1016.8
20260509231514 44 222 0.0 0.0 0.00 0.00 0.00 87 1016.8
20260509230013 44 222 0.0 0.0 0.00 0.00 0.00 86 1017.1
20260509224513 44 220 0.0 0.0 0.00 0.00 0.00 85 1017.1
20260509223010 45 220 0.0 0.0 0.00 0.00 0.00 84 1017.3
20260509221507 45 220 0.0 0.0 0.00 0.00 0.00 83 1017.3
20260509220004 46 220 0.0 0.0 0.00 0.00 0.00 81 1017.4
20260509214504 46 220 0.0 0.0 0.00 0.00 0.00 82 1017.6
20260509213002 46 220 0.0 2.0 0.00 0.00 0.00 81 1017.6
20260509211501 47 215 1.0 4.0 0.00 0.00 0.00 81 1017.7
20260509210101 47 216 1.0 4.0 0.00 0.00 0.00 80 1017.8
20260509204603 47 227 1.0 5.0 0.00 0.00 0.00 79 1017.9
20260509203058 47 229 1.0 5.0 0.00 0.00 0.00 77 1018.0
20260509201557 47 220 2.0 6.0 0.00 0.00 0.00 76 1018.1
20260509200109 47 231 0.0 4.0 0.00 0.00 0.00 75 1018.1
20260509194557 49 224 0.0 3.0 0.00 0.00 0.00 73 1018.3
20260509193055 49 220 0.0 0.0 0.00 0.00 0.00 72 1018.3
20260509191553 50 217 0.0 0.0 0.00 0.00 0.00 71 1018.3
20260509190054 51 217 0.0 0.0 0.00 0.00 0.00 71 1018.4
20260509184551 51 217 0.0 4.0 0.00 0.00 0.00 72 1018.4
20260509183102 51 215 2.0 5.0 0.00 0.00 0.00 72 1018.6
20260509181551 51 205 2.0 6.0 0.00 0.00 0.00 72 1018.7
20260509180048 52 221 2.0 8.0 0.00 0.00 0.00 71 1018.7
20260509174551 52 200 6.0 12.0 0.00 0.00 0.00 70 1018.8
20260509173046 54 253 4.0 10.0 0.00 0.00 0.00 68 1019.0
20260509171546 54 216 8.0 12.0 0.00 0.00 0.00 66 1019.2
20260509170042 55 210 5.0 12.0 0.00 0.00 0.00 66 1019.3
20260509164541 55 194 4.0 12.0 0.00 0.00 0.00 66 1019.3
20260509163047 55 223 7.0 12.0 0.00 0.00 0.00 64 1019.5
20260509161543 56 196 8.0 13.0 0.00 0.00 0.00 63 1019.8
20260509160036 56 200 5.0 14.0 0.00 0.00 0.00 66 1019.9
20260509154533 56 200 5.0 17.0 0.00 0.00 0.00 64 1020.1
20260509153045 57 216 9.0 14.0 0.00 0.00 0.00 61 1020.2
20260509151539 57 195 9.0 12.0 0.00 0.00 0.00 65 1020.3
20260509150039 56 200 7.0 14.0 0.00 0.00 0.00 66 1020.4
20260509144528 57 193 9.0 16.0 0.00 0.00 0.00 63 1020.6
20260509143028 57 227 8.0 15.0 0.00 0.00 0.00 63 1020.7
20260509141526 58 205 6.0 13.0 0.00 0.00 0.00 65 1020.9
20260509140030 58 191 7.0 14.0 0.00 0.00 0.00 63 1020.9
20260509134524 57 210 9.0 15.0 0.00 0.00 0.00 62 1021.1
20260509133021 58 205 6.0 15.0 0.00 0.00 0.00 63 1021.3
20260509131524 59 215 9.0 15.0 0.00 0.00 0.00 60 1021.4
20260509130019 60 210 9.0 15.0 0.00 0.00 0.00 57 1021.4
20260509124522 60 210 7.0 16.0 0.00 0.00 0.00 58 1021.4
20260509123017 60 210 8.0 14.0 0.00 0.00 0.00 57 1021.5
20260509121516 60 210 8.0 16.0 0.00 0.00 0.00 54 1021.5
20260509120024 62 205 9.0 14.0 0.00 0.00 0.00 46 1021.6